20230330,1
20230331,1
20230403,1
20230404,14
20230405,18
20230406,20
20230407,30
20230410,32
20230411,33
20230412,40
20230413,41
20230414,42
20230417,44
20230418,48
20230419,51
20230420,56
20230421,60
20230424,65
20230425,67
20230426,73
20230427,77
20230428,84
20230501,91
20230502,92
20230508,101
20230509,103
20230510,109
20230511,108
20230512,115
20230515,119
20230516,122
20230517,127
20230518,132
20230519,136
20230522,137
20230523,134
20230524,144
20230525,150
20230526,158
20230529,182
20230530,189
20230531,188
20230601,199
20230602,221
20230605,237
20230606,242
20230607,249
20230608,258
20230609,264
20230612,269
20230613,273
20230614,293
20230615,292
20230616,289
20230619,306
20230620,318
20230621,315
20230622,370
20230623,390
20230626,398
20230627,408
20230628,453
20230629,469
20230630,481
20230703,480
20230704,513
20230705,538
20230706,537
20230707,548
20230710,546
20230711,549
20230712,577
20230713,578
20230714,575
20230718,588
20230719,604
20230720,632
20230721,637
20230724,670
20230725,700
20230726,726
20230727,767
20230728,780
20230731,820
20230801,844
20230802,905
20230803,925
20230804,922
20230807,917
20230808,941
20230809,956
20230810,959
20230814,976
20230815,1012
20230816,1007
20230817,1040
20230818,1040
20230821,1059
20230822,1080
20230823,1136
20230824,1173
20230825,1174
20230828,1195
20230829,1273
20230830,1356
20230831,1368
20230901,1341
20230904,1396
20230905,1438
20230906,1444
20230907,1486
20230908,1484
20230911,1503
20230912,1524
20230913,1560
20230914,1575
20230915,1608
20230919,1610
20230920,1640
20230921,1671
20230922,1687
20230925,1727
20230926,1783
20230927,1880
20230928,1958
20230929,2022
20231002,2049
20231003,2066
20231004,2131
20231005,2152
20231006,2168
20231010,2249
20231011,2283
20231012,2362
20231013,2374
20231016,2381
20231017,2415
20231018,2470
20231019,2429
20231020,2418
20231023,2394
20231024,2486
20231025,2554
20231026,2533
20231027,2602
20231030,2629
20231031,2687
20231101,2779
20231102,2859
20231106,2974
20231107,2994
20231108,3057
20231109,3072
20231110,3050
20231113,3094
20231114,3124
20231115,3127
20231116,3136
20231117,3168
20231120,3161
20231121,3156
20231122,3212
20231124,3272
20231127,3283
20231128,3261
20231129,3413
20231130,3461
20231201,3503
20231204,3580
20231205,3674
20231206,3717
20231207,3720
20231208,3658
20231211,3746
20231212,3814
20231213,3909
20231214,3897
20231215,3926
20231218,3961
20231219,4057
20231220,4208
20231221,4167
20231222,4282
20231225,4324
20231226,4376
20231227,4411
20231228,4605
20231229,4665
20240104,4697
20240105,4804
20240109,5322
20240110,5536
20240111,5878
20240112,6094
20240115,6274
20240116,6512
20240117,6556
20240118,6984
20240119,7247
20240122,7468
20240123,7680
20240124,8122
20240125,8296
20240126,8546
20240129,8938
20240130,9190
20240131,9521
20240201,9445
20240202,9930
20240205,10463
20240206,10556
20240207,10831
20240208,11049
20240209,11329
20240213,11525
20240214,11613
20240215,12128
20240216,12414
20240219,12695
20240220,12850
20240221,12755
20240222,13453
20240226,14000
20240227,14251
20240228,14892
20240229,15085
20240301,15310
20240304,15902
20240305,16150
20240306,16153
20240307,16365
20240308,16541
20240311,16533
20240312,16661
20240313,17317
20240314,17363
20240315,17538
20240318,17600
20240319,17949
20240321,18556
20240322,18929
20240325,19401
20240326,19450
20240327,20052
20240328,20435
20240329,20692
20240401,20807
20240402,20811
20240403,21454
20240404,21588
20240405,21473
20240408,21995
20240409,22189
20240410,22414
20240411,22550
20240412,23079
20240415,22888
20240416,22945
20240417,23261
20240418,23194
20240419,23466
20240422,23345
20240423,23747
20240424,24488
20240425,24760
20240426,24954
20240430,25936
20240501,25925
20240502,26140
20240507,26920
20240508,27424
20240509,27884
20240510,28124
20240513,28468
